Location: Brno
(49.2000°N, 16.6330°E)
Time: 01:34:40
(UTC+02:00)

RESURS DK-1 - Visible Passes

Search period start: 17 October 2017 00:00
Search period end: 27 October 2017 00:00
Orbit: 557 x 563 km, 69.9° (Epoch: 16 October)

Date Brightness Start Highest point End Pass type
(mag) Time Alt. Az. Time Alt. Az. Time Alt. Az.
17 Oct 2.4 19:13:18 10° NNW 19:17:28 83° WSW 19:21:36 10° SSE visible
18 Oct 2.8 19:11:53 10° NW 19:16:00 63° WSW 19:20:04 10° SSE visible
19 Oct 3.4 19:10:31 10° NW 19:14:30 47° WSW 19:18:27 10° S visible
20 Oct 4.0 19:09:11 10° NW 19:12:59 36° WSW 19:16:46 10° S visible
21 Oct 4.6 19:07:54 10° NW 19:11:27 27° WSW 19:14:57 10° SSW visible
22 Oct 5.2 19:06:44 10° WNW 19:09:53 21° WSW 19:13:01 10° SSW visible
23 Oct 5.5 19:05:42 10° WNW 19:08:18 16° WSW 19:10:53 10° SW visible
24 Oct 5.9 19:04:56 10° WNW 19:06:42 12° WSW 19:08:26 10° SW visible
